www.pogodaiklimat.ru

Погода и климат >> Архив погоды >> Германия >> Offenbach Wetterpark


ПОГОДА в Offenbach Wetterpark

  • Прогноз погоды в Offenbach Wetterpark
  • Монитор погоды в Offenbach Wetterpark
  • Климат города

АРХИВ ПОГОДЫ в Offenbach Wetterpark

Время (UTC), дата Ветер
(напр.,м/с)
 
Видим.   Явления Облачность Т
(С)
Тd
(С)
f
(%)
Тe
(С)
Тes
(С)
Комфортность P
(гПа)
Po
(гПа)
Тmin
(С)
Tmax
(С)
R
(мм)
R24
(мм)
S
(см)
22 11.12 Ю 6-13
{15}
70 км 9/9 1080 м
[]
+8.8 +2.9 66 +5 +5 985.2 971.0
23 11.12 Ю 6-10
{12}
70 км в посл. час дождь {морось} 10/10 900 м
[]
+7.1 +4.0 81 +3 +3 987.0 972.7
00 12.12 ЮЗ 4 70 км {дождь, морось} 10/10 870 м
[]
+7.0 +2.6 74 +4 +4 987.9 973.6 0.5
01 12.12 ЮЗ 7-11
{12}
70 км 10/10 960 м
[]
+6.7 +0.9 66 +2 +2 989.4 975.0
02 12.12 ЮЗ 7-11
{13}
70 км 10/10 960 м
[]
+6.3 +0.9 68 +2 +2 991.0 976.6
03 12.12 ЮЗ 9 70 км в посл. час снег {дождь} 9/9 570 м
[]
+4.1 -0.7 71 -2 -2 993.0 978.4 0.2
04 12.12 ЮЗ 8-14
{18}
6000 м слаб. морось с дождем {снег} 10/10 600 м
[]
+2.7 -0.3 81 -4 -4 995.6 980.9
05 12.12 ЮЗ 6-10
{15}
29 км слаб. морось {снег, дождь} 9/9 660 м
[]
+2.4 -0.3 82 -3 -3 998.5 983.8
06 12.12 ЮЗ 6 55 км в посл. час зёрна {снег, дождь} 10/10 600 м
[]
+3.1 -1.0 74 -2 -2 1000.9 986.2 +2.4 +9.6 0.0
07 12.12 З 6-10
{10}
65 км в посл. час дождь {морось} 9/9 960 м
[]
+3.4 -1.0 73 -2 -2 1003.1 988.3
08 12.12 ЮЗ 6-10
{10}
65 км 5/5 1050 м
[]
+3.4 -1.7 69 -2 -2 1005.2 990.4
09 12.12 ЮЗ 5 50 км {дождь, морось} 1/0
[]
+3.6 -1.8 68 -1 -1 1006.7 991.9 0.0
10 12.12 ЮЗ 7-13
{13}
55 км 10/0
[]
+4.3 -1.6 65 -1 -1 1007.7 992.9
11 12.12 ЮЗ 8-13
{13}
40 км ясно +4.9 -2.0 61 -1 -0 1008.4 993.6
12 12.12 ЮЗ 5 50 км в посл. час дождь {морось} 9/9 800 м
[]
+5.6 -0.6 64 +2 +2 1009.2 994.5 0.0
13 12.12 ЮЗ 5-10
{10}
70 км в посл. час дождь {морось} 10/10 720 м
[]
+4.9 -0.3 69 +1 +1 1010.1 995.3
14 12.12 ЮЗ 4-8
{11}
60 км в посл. час дождь {морось} 10/10 720 м
[]
+4.6 -0.5 69 +1 +1 1010.7 995.9
15 12.12 ЮЗ 4-6
{11}
70 км в посл. час дождь {морось} 10/10 1020 м
[]
+4.4 -0.6 70 0 0 1011.9 997.1 0.0
16 12.12 ЮЗ 3-5
{8}
70 км в посл. час дождь {морось} 10/10 1110 м
[]
+4.2 -0.9 69 +1 +1 1013.2 998.3
17 12.12 ЮЗ 4-6
{9}
65 км 10/10 1230 м
[]
+3.6 -1.2 71 -1 -1 1014.0 999.1
18 12.12 ЮЗ 3 65 км {дождь, морось} 9/9 1500 м
[]
+2.6 -1.8 73 -1 -1 1015.0 1000.0 +2.3 +5.7 0.0
19 12.12 ЮЗ 3-4
{5}
60 км 10/10 1500 м
[]
+2.7 -2.0 71 -1 -1 1015.8 1000.8
20 12.12 ЮЗ 3-4
{5}
60 км 10/10 1500 м
[]
+2.7 -2.0 71 -1 -1 1015.8 1000.8
21 12.12 ЮЗ 3-5
{7}
40 км в посл. час снег 8/8 1230 м
[]
+1.9 -2.1 75 -2 -2 1017.1 1002.0 0.0
22 12.12 ЮЗ 3-5
{7}
30 км 6/6 1320 м
[]
+1.2 -1.7 81 -3 -3 1017.2 1002.1
23 12.12 Ю 4-7
{7}
26 км 6/6 1500 м
[]
+1.2 -1.4 83 -4 -4 1017.7 1002.6
00 13.12 ЮЗ 3-5
{7}
26 км {снег} ясно +0.6 -1.6 85 -4 -4 1017.8 1002.7
01 13.12 ЮЗ 3-4
{5}
35 км 10/10 660 м
[]
+1.7 -1.0 82 -3 -3 1017.6 1002.5
02 13.12 Ю 3-5
{6}
35 км 10/10 540 м
[]
+2.1 -0.6 82 -2 -2 1017.7 1002.7
03 13.12 Ю 3-4
{6}
30 км ясно +1.5 -1.0 83 -3 -3 1017.1 1002.0
04 13.12 Ю 3-4
{5}
30 км 8/8 800 м
[]
+1.4 -0.9 85 -3 -3 1016.6 1001.5
05 13.12 Ю 4-5
{5}
35 км 9/9 630 м
[]
+2.0 -0.9 81 -3 -3 1016.1 1001.1
06 13.12 ЮВ 2 35 км 9/9 630 м
[]
+1.9 -0.8 82 -1 -1 1015.6 1000.6 +0.5 +2.8
07 13.12 Ю 4-6
{6}
50 км 9/9 720 м
[]
+3.0 -1.2 74 -2 -2 1015.1 1000.1
08 13.12 Ю 3-6
{6}
45 км 10/10 900 м
[]
+2.2 -1.2 78 -2 -2 1014.3 999.3
09 13.12 Ю 5 60 км 10/10 1110 м
[]
+4.0 -1.3 68 -1 -1 1012.9 998.0
10 13.12 Ю 4-8
{9}
65 км 10/0
[]
+4.9 -1.8 62 +1 +2 1011.8 997.0
11 13.12 Ю 6-11
{12}
50 км 10/10 1470 м
[]
+5.4 -1.9 59 +1 +1 1010.4 995.6
12 13.12 Ю 6-10
{12}
70 км 9/0 2000 м
[]
+5.0 -1.4 63 0 +1 1008.6 993.8
13 13.12 Ю 7-12
{13}
10 км слаб. дождь {морось} 10/10 210 м
[]
+3.5 +0.1 78 -2 -2 1007.2 992.4
14 13.12 Ю 5-10
{14}
6000 м слаб. дождь {снег} 10/10 210 м
[]
+2.7 +1.1 89 -3 -3 1006.0 991.2
15 13.12 Ю 4 5000 м дождь {снег} 10/10 180 м
[]
+2.1 +0.9 92 -3 -3 1005.1 990.2 3
16 13.12 Ю 5-9
{9}
8000 м слаб. дождь 10/10 210 м
[]
+2.1 +0.8 91 -4 -4 1004.1 989.3
17 13.12 Ю 4-7
{9}
12 км слаб. дождь 10/10 180 м
[]
+2.3 +1.3 93 -3 -3 1003.2 988.4
18 13.12 Ю 4 24 км слаб. дождь {снег} 10/10 210 м
[]
+2.8 +1.4 90 -2 -2 1002.0 987.2 +1.8 +5.7 3
19 13.12 Ю 4-7
{9}
29 км слаб. морось {дождь} 10/10 270 м
[]
+3.4 +1.8 89 -1 -1 1000.1 985.4
20 13.12 Ю 4-7
{11}
50 км в посл. час дождь {морось} 10/10 400 м
[]
+4.3 +2.5 88 -0 -0 998.2 983.6
21 13.12 ЮЗ 5-9
{11}
40 км слаб. морось {дождь} 10/10 450 м
[]
+5.0 +2.7 85 0 0 996.3 981.7 0.1
22 13.12 Ю 7-13
{13}
5000 м дождь {морось} 10/10 400 м
[]
+5.0 +3.4 89 -1 -1 994.3 979.8
23 13.12 ЮЗ 6-11
{14}
35 км слаб. морось с дождем 10/10 240 м
[]
+5.1 +3.6 90 -0 -0 993.3 978.8
00 14.12 ЮЗ 6 12 км слаб. морось с дождем 9/9 210 м
[]
+5.2 +4.0 92 0 0 992.7 978.2 3
01 14.12 ЮЗ 4-6
{11}
65 км в посл. час дождь {морось} 10/10 240 м
[]
+5.2 +4.1 93 +1 +1 993.1 978.6
02 14.12 ЮЗ 5-9
{9}
70 км 1/0
[]
+4.9 +3.5 91 0 0 993.3 978.8
03 14.12 ЮЗ 4 70 км {дождь, морось} 9/9 900 м
[]
+5.3 +3.3 87 +1 +1 993.2 978.7 0.1
04 14.12 ЮЗ 5-9
{9}
2000 м дождь 10/10 30 м
[]
+5.2 +3.8 91 +1 +1 992.6 978.1
05 14.12 ЮЗ 6-11
{14}
70 км в посл. час дождь {морось} 9/9 660 м
[]
+4.5 +1.4 80 -1 -1 993.7 979.1
06 14.12 ЮЗ 7 70 км в посл. час дождь {морось} 3/0
[]
+3.7 -0.3 75 -2 -2 995.2 980.6 +2.8 +5.8 3
07 14.12 З 7-10
{14}
70 км 8/8 1300 м
[]
+4.2 -1.7 65 -1 -1 996.6 982.0
08 14.12 ЮЗ 7-12
{14}
65 км 9/9 1300 м
[]
+4.6 -1.6 64 -1 -1 997.8 983.2
09 14.12 ЮЗ 5 70 км 8/8 1050 м
[]
+4.7 -1.0 67 0 0 998.7 984.1
10 14.12 ЮЗ 7-11
{12}
65 км 10/10 870 м
[]
+5.6 +0.5 70 +1 +1 999.4 984.8
11 14.12 ЮЗ 6-11
{12}
50 км 10/10 930 м
[]
+5.9 +0.4 68 +1 +1 998.9 984.3
12 14.12 ЮЗ 6 45 км 10/10 1050 м
[]
+6.4 -0.3 62 +2 +2 998.1 983.6
13 14.12 ЮЗ 8-17
{17}
55 км 9/9 1000 м
[]
+6.4 +0.2 65 +1 +1 997.4 982.9
14 14.12 ЮЗ 5-8
{14}
45 км слаб. морось {дождь} 9/9 800 м
[]
+5.5 +1.5 75 +1 +1 997.2 982.6
15 14.12 ЮЗ 7 26 км слаб. морось с дождем 10/10 630 м
[]
+5.1 +2.0 80 -0 -0 996.9 982.3 0.2
16 14.12 ЮЗ 5-8
{10}
9000 м слаб. морось с дождем 10/10 570 м
[]
+4.6 +2.8 88 -0 -0 996.7 982.1
17 14.12 ЮЗ 4-8
{9}
35 км в посл. час дождь {морось} 9/9 700 м
[]
+4.4 +2.5 87 0 0 996.1 981.5
18 14.12 ЮЗ 4 40 км в посл. час дождь {морось} 10/10 1260 м
[]
+4.1 +1.9 86 -0 -0 995.2 980.6 +3.7 +6.6 0.3
19 14.12 Ю 2-5
{7}
40 км 10/10 960 м
[]
+4.2 +1.7 84 +1 +1 994.8 980.2
20 14.12 Ю 3-5
{7}
65 км в посл. час дождь {морось} 9/9 900 м
[]
+3.9 +1.1 82 0 0 994.6 980.0
21 14.12 Ю 3-5
{7}
70 км {дождь, морось} 10/10 1000 м
[]
+4.1 +1.2 81 0 0 994.5 979.9 0.0
22 14.12 Ю 4-6
{6}
19 км слаб. дождь {морось} 9/9 700 м
[]
+3.7 +1.9 88 -1 -1 993.9 979.3
23 14.12 ЮВ 2-4
{5}
19 км слаб. морось {дождь} 9/9 570 м
[]
+3.3 +2.4 94 0 0 992.9 978.3
00 15.12 ЮВ 2 4500 м слаб. дождь {морось} 9/9 30 м
[]
+3.5 +2.8 95 0 0 992.4 977.8 2
01 15.12 ЮЗ 2-3
{4}
3800 м дождь {морось} 10/10 500 м
[]
+3.9 +3.0 94 +1 +1 992.1 977.5
02 15.12 ЮЗ 3-6
{8}
6000 м дождь 10/10 240 м
[]
+3.4 +2.3 92 -1 -1 992.8 978.2
03 15.12 ЮЗ 3 45 км слаб. морось {дождь} 9/9 540 м
[]
+3.2 +2.2 93 -1 -1 993.5 978.9 3
04 15.12 ЮЗ 2-4
{4}
16 км слаб. дождь {морось} 9/9 180 м
[]
+3.4 +2.4 93 0 0 994.2 979.6
05 15.12 ЮЗ 4-7
{9}
70 км в посл. час дождь {морось} 1/1 800 м
[]
+2.8 +1.4 90 -2 -2 995.0 980.3
06 15.12 ЮЗ 4 70 км {дождь, морось} 1/1 600 м
[]
+2.2 +0.6 89 -3 -3 995.8 981.1 +2.2 +4.5 0.2
07 15.12 Ю 3-6
{8}
60 км 9/9 840 м
[]
+2.4 +0.8 89 -2 -2 997.1 982.4
08 15.12 Ю 3-6
{7}
24 км слаб. морось {дождь} 10/10 420 м
[]
+2.9 +1.4 90 -1 -1 997.6 982.9
09 15.12 Ю 3 50 км в посл. час морось {дождь} 10/10 900 м
[]
+3.4 +1.6 88 -1 -1 997.8 983.1 0.1
10 15.12 Ю 5-9
{10}
5000 м дождь {морось} 10/10 240 м
[]
+2.2 +0.8 90 -3 -3 998.3 983.5
11 15.12 ЮВ 2-3
{5}
8000 м слаб. дождь со снегом 10/10 120 м
[]
+1.3 +0.4 94 -2 -2 997.7 982.9
12 15.12 ЮВ 2 28 км слаб. морось {снег, дождь} 10/10 90 м
[]
+2.1 +1.4 95 -1 -1 997.3 982.6 4
13 15.12 ЮВ 1-2
{2}
9000 м слаб. морось {дождь} 10/10 60 м
[]
+3.0 +2.4 96 +1 +1 997.3 982.6
14 15.12 ЮЗ 3-6
{6}
8000 м слаб. дождь {морось} 9/9 240 м
[]
+4.0 +2.8 92 0 0 997.3 982.7
15 15.12 ЮЗ 3 55 км в посл. час дождь {морось} 10/10 240 м
[]
+4.0 +2.5 90 0 0 998.3 983.6 0.8
16 15.12 З 3-6
{7}
45 км в посл. час дождь {морось} 10/10 720 м
[]
+3.4 +1.6 88 -1 -1 999.1 984.4
17 15.12 З 2-3
{6}
50 км в посл. час дождь {морось} 9/9 840 м
[]
+3.2 +1.3 87 0 0 999.7 985.0
18 15.12 В 1 15 км {дождь, морось} 10/10 750 м
[]
+2.4 +1.6 94 +1 +1 1000.2 985.4 +1.2 +4.0 0.0
19 15.12 Ю 1-1
{1}
10 км 10/10 660 м
[]
+2.7 +2.0 95 +1 +1 1000.7 985.9
20 15.12 ЮВ 1-1
{2}
9000 м 9/9 800 м
[]
+2.5 +2.1 97 +1 +1 1001.1 986.3
21 15.12 С 1-1
{2}
16 км 10/10 750 м
[]
+2.8 +2.0 94 +1 +1 1001.5 986.7
22 15.12 СВ 1-1
{2}
10 км в посл. час дождь {морось} 10/10 800 м
[]
+2.6 +2.0 96 +1 +1 1001.8 987.0
23 15.12 З 1-1
{2}
5000 м слаб. дождь {туман} 9/9 700 м
[]
+2.4 +2.0 97 +1 +1 1002.6 987.8
00 16.12 штиль 0 2300 м слаб. дождь {морось} 9/9 450 м
[]
+2.4 +2.0 97 +1 +1 1002.9 988.1 0.2
01 16.12 С 1-2
{3}
5000 м в посл. час дождь {морось} 10/10 930 м
[]
+2.2 +1.6 96 0 0 1003.3 988.5
02 16.12 С 1-2
{2}
2700 м в посл. час туман {дымка} 10/10 1300 м
[]
+1.7 +1.3 97 -0 -0 1004.1 989.2
03 16.12 С 1 3400 м дымка {дождь, морось} 6/6 1320 м
[]
+1.0 +0.3 95 -1 -1 1004.5 989.6 0.0
04 16.12 Ю 1-1
{3}
2200 м дымка 10/10 1110 м
[]
+0.6 +0.3 98 -2 -2 1005.4 990.5
05 16.12 С 1-2
{2}
5000 м дымка 10/10 1080 м
[]
+1.0 +0.5 96 -1 -1 1006.1 991.2
06 16.12 С 1 10 км {дождь, морось} 10/10 1000 м
[]
+1.4 +0.6 94 -1 -1 1006.8 991.9 +0.3 +2.9
07 16.12 Ю 1-1
{2}
2900 м дымка 10/10 1200 м
[]
+1.0 +0.6 97 -1 -1 1007.7 992.7
08 16.12 ЮЗ 1-2
{2}
4700 м дымка 10/10 1230 м
[]
+1.2 +0.7 96 -1 -1 1008.6 993.6
09 16.12 З 1 6000 м дымка 10/10 1300 м
[]
+1.8 +0.8 93 -0 -0 1009.5 994.6
10 16.12 ЮЗ 2-3
{4}
7000 м дымка 10/10 1300 м
[]
+3.0 +1.3 89 -0 -0 1010.4 995.5
11 16.12 З 4-7
{7}
8000 м слаб. морось {дождь} 10/10 600 м
[]
+3.4 +1.0 84 -1 -1 1011.0 996.1
12 16.12 З 3-5
{7}
9000 м в посл. час дождь {морось} 9/9 700 м
[]
+3.8 +1.6 86 0 0 1011.6 996.7 0.0
13 16.12 ЮЗ 3-5
{6}
14 км 10/10 600 м
[]
+4.4 +1.2 80 +1 +1 1011.8 997.0
14 16.12 З 3-4
{5}
20 км в посл. час морось 10/10 800 м
[]
+4.8 +0.6 74 +1 +1 1012.3 997.5
15 16.12 З 3-6
{7}
23 км в посл. час дождь {морось} 10/10 870 м
[]
+4.2 +0.4 76 +1 +1 1013.2 998.3 0.0
16 16.12 З 3-6
{6}
22 км в посл. час дождь {морось} 9/9 420 м
[]
+3.7 +0.8 81 0 0 1013.8 998.9
17 16.12 ЮЗ 4-6
{6}
21 км слаб. морось {дождь} 9/9 1500 м
[]
+3.0 +0.8 85 -2 -2 1014.8 999.8
18 16.12 З 4 25 км слаб. морось {дождь} 10/10 900 м
[]
+3.1 +0.7 84 -2 -2 1015.6 1000.6 +0.9 +4.9 0.0
19 16.12 З 4-6
{6}
30 км в посл. час дождь {морось} 10/10 1080 м
[]
+3.2 +0.9 85 -1 -1 1016.1 1001.1
20 16.12 ЮЗ 4-6
{6}
30 км в посл. час морось 10/10 840 м
[]
+3.3 +0.4 81 -1 -1 1016.8 1001.8
21 16.12 ЮЗ 4 30 км в посл. час дождь {морось} 10/10 630 м
[]
+3.0 +0.4 83 -2 -2 1017.3 1002.3 0.0
22 16.12 ЮЗ 3-6
{6}
8000 м слаб. морось с дождем 9/9 800 м
[]
+2.7 +0.7 87 -1 -1 1017.7 1002.7
23 16.12 ЮЗ 3-5
{5}
29 км в посл. час дождь {морось} 9/9 750 м
[]
+2.8 +0.4 84 -1 -1 1018.2 1003.2
00 17.12 З 3-5
{7}
45 км в посл. час морось {дождь} 10/10 930 м
[]
+3.1 0.0 80 -1 -1 1018.5 1003.5 0.1
01 17.12 ЮЗ 2-4
{6}
35 км слаб. морось {дождь} 10/10 630 м
[]
+3.0 +0.2 82 0 0 1018.7 1003.7
02 17.12 ЮЗ 3-4
{5}
45 км в посл. час морось 10/10 660 м
[]
+2.9 +0.3 83 -1 -1 1019.1 1004.1
03 17.12 З 3 50 км в посл. час дождь {морось} 10/10 660 м
[]
+2.9 +0.2 82 -1 -1 1019.4 1004.4 0.0
04 17.12 ЮЗ 3-5
{5}
40 км слаб. морось {дождь} 10/10 600 м
[]
+2.9 +0.2 82 -1 -1 1019.9 1004.9
05 17.12 ЮЗ 3-4
{6}
40 км в посл. час дождь {морось} 10/10 700 м
[]
+2.6 +0.5 86 -2 -2 1020.3 1005.2
06 17.12 ЮЗ 3 30 км слаб. морось {дождь} 9/9 600 м
[]
+2.5 +0.5 87 -2 -2 1020.9 1005.8 +2.2 +3.4 0.1
07 17.12 ЮЗ 2-4
{6}
40 км в посл. час морось 10/10 800 м
[]
+2.5 +0.2 85 -1 -1 1021.4 1006.3
08 17.12 ЮЗ 2-4
{6}
23 км в посл. час дождь {морось} 10/10 360 м
[]
+1.9 +0.6 91 -2 -2 1022.3 1007.2
09 17.12 ЮЗ 2 30 км {дождь, морось} 10/10 720 м
[]
+2.1 +0.3 88 -1 -1 1023.2 1008.1 0.4
10 17.12 ЮЗ 3-4
{5}
30 км в посл. час морось 10/10 720 м
[]
+2.4 +0.2 85 -2 -2 1023.9 1008.8
11 17.12 З 3-6
{6}
30 км в посл. час морось 10/10 1320 м
[]
+3.3 +0.3 81 -1 -1 1023.9 1008.8
12 17.12 З 4-6
{6}
24 км в посл. час морось {дождь} 10/10 1200 м
[]
+3.0 +0.7 85 -2 -2 1024.2 1009.1 0.0
13 17.12 З 2-4
{7}
23 км в посл. час морось 10/10 1260 м
[]
+2.8 +0.8 87 -0 -0 1024.1 1009.0
14 17.12 ЮЗ 2-3
{5}
26 км 10/10 1230 м
[]
+3.5 +1.1 84 +1 +1 1024.2 1009.1
15 17.12 ЮЗ 2-3
{7}
24 км {морось} 10/10 1230 м
[]
+3.3 +1.0 85 0 0 1024.9 1009.8 0.0
16 17.12 ЮЗ 3-5
{6}
28 км в посл. час дождь {морось} 9/9 1200 м
[]
+2.9 +0.7 85 -1 -1 1025.6 1010.5
17 17.12 Ю 2-3
{5}
20 км 10/10 1300 м
[]
+2.7 +0.9 88 -1 -1 1026.0 1010.9
18 17.12 ЮЗ 2 17 км {дождь, морось} 10/10 900 м
[]
+2.4 +0.7 89 -1 -1 1026.3 1011.1 +1.7 +3.6 0.0
19 17.12 Ю 2-3
{4}
11 км в посл. час дождь {морось} 10/10 30 м
[]
+2.0 +1.0 93 -1 -1 1026.2 1011.0
20 17.12 ЮЗ 3-5
{5}
13 км 10/10 1500 м
[]
+1.7 +0.2 90 -3 -3 1026.4 1011.2
21 17.12 ЮЗ 3-5
{5}
11 км {дождь, морось} 10/10 1410 м
[]
+1.2 -0.3 90 -3 -3 1026.2 1011.0 0.2
22 17.12 Ю 3-4
{5}
9000 м 10/10 1380 м
[]
+1.2 -0.3 90 -3 -3 1026.2 1011.0
23 17.12 Ю 2-4
{5}
11 км 10/10 1350 м
[]
+1.3 -0.4 88 -2 -2 1025.6 1010.4
00 18.12 Ю 3 11 км {дождь, морось} 10/10 540 м
[]
+1.6 -0.4 87 -3 -3 1025.0 1009.8
01 18.12 Ю 3-5
{5}
12 км 10/10 750 м
[]
+1.8 -0.3 86 -3 -3 1023.7 1008.5
02 18.12 Ю 3-6
{6}
21 км 10/10 660 м
[]
+2.1 -0.8 81 -2 -2 1023.1 1008.0
03 18.12 Ю 4 4000 м слаб. снег {дождь} 10/10 30 м
[]
+1.1 -0.4 90 -4 -4 1022.5 1007.3 0.2
04 18.12 Ю 2-4
{5}
2300 м слаб. снег 9/9 30 м
[]
+0.5 -0.2 95 -3 -3 1022.0 1006.8
05 18.12 Ю 2-4
{5}
6000 м слаб. снег 10/10 120 м
[]
+0.6 -0.3 94 -3 -3 1021.4 1006.2
06 18.12 ЮВ 3 3800 м слаб. снег {дождь} 10/10 50 м
[]
+0.5 -0.2 95 -4 -4 1020.9 1005.7 +0.4 +2.4 2
07 18.12 ЮВ 3-4
{6}
9000 м слаб. морось {снег} 10/10 90 м
[]
+0.6 -0.2 94 -4 -4 1021.0 1005.8
08 18.12 ЮВ 2-3
{5}
12 км слаб. морось {снег} 10/10 150 м
[]
+0.7 -0.1 94 -3 -3 1021.6 1006.4
09 18.12 Ю 2 7000 м слаб. морось {снег} 10/10 360 м
[]
+0.8 +0.1 95 -3 -3 1022.1 1006.9 0.1
10 18.12 ЮВ 2-3
{3}
13 км в посл. час морось 10/10 360 м
[]
+1.3 +0.4 94 -2 -2 1022.6 1007.4
11 18.12 ЮВ 1-2
{3}
20 км 10/10 480 м
[]
+1.8 +0.6 92 -0 -0 1023.5 1008.4
12 18.12 ЮВ 2-2
{6}
22 км слаб. морось {снег} 10/10 500 м
[]
+2.0 +0.3 88 -1 -1 1024.2 1009.1 0.0
13 18.12 ЮВ 2-3
{5}
20 км в посл. час морось 10/10 240 м
[]
+2.2 +0.3 87 -1 -1 1024.2 1009.1
14 18.12 ЮВ 1-2
{3}
22 км 10/10 240 м
[]
+2.4 +0.7 89 +1 +1 1025.1 1010.0
15 18.12 ЮВ 1-2
{5}
20 км {морось} 10/10 210 м
[]
+2.5 +0.6 87 +1 +1 1025.6 1010.5 0.0
16 18.12 В 1-2
{2}
16 км 10/10 240 м
[]
+2.4 +0.8 89 +1 +1 1026.6 1011.4
17 18.12 ЮВ 1-2
{2}
18 км 10/10 540 м
[]
+2.3 +0.8 90 +1 +1 1027.2 1012.0
18 18.12 ЮВ 1 9000 м {морось} 10/10 570 м
[]
+2.0 +1.0 93 0 0 1028.1 1012.9 +0.4 +2.6
19 18.12 В 1-2
{2}
10 км 10/10 720 м
[]
+1.9 +0.9 93 0 0 1028.7 1013.5
20 18.12 штиль 0-1
{2}
8000 м 10/10 1080 м
[]
+1.6 +0.7 94 0 0 1029.3 1014.1
21 18.12 штиль 0
{2}
5000 м дымка 10/10 480 м
[]
+1.6 +0.9 95 0 0 1029.9 1014.6

 

Местоположение метеостанции Offenbach Wetterpark (Германия): широта 50.08 долгота 8.78 высота над уровнем моря 119 м.

В архиве по умолчанию представлена погода в Offenbach Wetterpark за последнюю неделю. Архивные данные за месяц целиком и за предыдущие месяцы, начиная с января 2011 года, Вы можете получить, выбрав интересующий диапазон дат из раскрывающегося списка и нажав кнопку "Ввод!".

Внимание! Время в таблицах - всемирное. Для получения местного времени необходимо прибавить поправку, которая в Offenbach Wetterpark равна 1 ч.

Смотрите также архив погоды в соседних городах и на ближайших метеорологических станциях:

Погода в Frankfurt (Германия) (13 км)
Погода в Kleiner Feldberg (Германия) (28 км)
Погода в Michelstadt (Германия) (46 км)
Погода в Neuhuetten / Spessart (Германия) (46 км)
Погода в Giessen (Германия) (56 км)
Погода в Hoherodskopf-Vogelsberg (Германия) (58 км)
Погода в Geisenheim (Германия) (60 км)
Погода в Mannheim (Германия) (64 км)
Погода в Neu-Ulrichstein (Германия) (76 км)
Погода в Waibstadt (Германия) (87 км)

Пояснения к столбцам:

Ветер - указаны скорость ветра в м/с - средняя за 10 мин, порывы в срок и между сроками (в фигурных скобках) и направление, откуда дует ветер: С - северный, СВ - северо-восточный, В - восточный, ЮВ - юго-восточный, Ю - южный, ЮЗ - юго-западный, З - западный, СЗ - северо-западный.
Видимость - горизонтальная дальность видимости в метрах или километрах. При видимости от 1 до 10 км при отсутствии осадков обычно наблюдается дымка, при ухудшении видимости до 1 км и менее - туман. В сухую погоду видимость может ухудшаться дымом, пылью или мглою.
Явления - указаны атмосферные явления, наблюдавшиеся в срок или в последний час перед сроком; фигурными скобками обозначены явления, наблюдавшиеся между сроками (за 1-3 часа до срока); квадратными скобками обозначены град или гололедные отложения с указанием их диаметра в мм.
Облачность - указаны через наклонную черту общая и нижняя облачность в баллах и высота нижней границы облаков в метрах; квадратными скобками обозначены формы облаков: Ci - перистые, Cs - перисто-слоистые, Cc - перисто-кучевые, Ac - высококучевые, As - высокослоистые, Sc - слоисто-кучевые, Ns - слоисто-дождевые, Cu - кучевые, Cb - кучево-дождевые. Подробнее классификацию облаков см. в Атласе облаков (PDF).
T - Температура воздуха - температура, измеренная на высоте 2 м над землей.
Td - Температура точки росы - температура, при понижении до которой содержащийся в воздухе водяной пар достигнет насыщения.
f - Относительная влажность воздуха - влажноcть воздуха, измеренная на высоте 2 м над землей.
Te - Эффективная температура - температура, которую ощущает одетый по сезону человек в тени. Характеристика душности погоды. При расчете учитывается влияние влажности воздуха и скорости ветра на теплоощущения человека.
Tes - Эффективная температура на солнце - температура, которую ощущает человек, с поправкой на солнечный нагрев. Характеристика знойности погоды. Зависит от высоты солнца над горизонтом, облачности и скорости ветра. Ночью, в пасмурную погоду, а также при ветре 12 м/с и более поправка равна нулю.
P - Атмосферное давление - приведенное к уровню моря атмосферное давление.
Po - Атмосферное давление - измеренное на уровне метеостанции атмосферное давление.
Tmin - Минимальная температура - минимум температуры воздуха на высоте 2 м над землей.
Tmax - Максимальная температура - максимум температуры воздуха на высоте 2 м над землей.
R - Количество осадков - Количество выпавших осадков за период времени, мм. При наведении курсора мыши на число - период времени, за который выпало указанное количество осадков.
R24 - Количество осадков - Количество выпавших осадков за 24 часа, мм.
S - Снежный покров - Высота снежного покрова, см. При наведении курсора мыши на число - состояние снежного покрова и степень покрытия местности в баллах.